Accueil
METAR-TAF:

METAR-TAF

Aéroports :

Aéroport de Laval - Entrammes

Laval, France

latitude: 48-01-56N, longitude: 000-44-34W, altitude: 101 m

Observation

Le bulletin a été fait il y a 44 minutes, à 00:00 UTC
Vent 5 kt de sud-est
Température 8°C
Humidité 100%
Pression 1009 hPa
Visibilité 10 km ou plus
Quelques nuages à une hauteur de 4700 ft
Nuages épars à une hauteur de 7400 ft
Ciel couvert à une hauteur de 8800 ft

METAR: LFOV 260000Z AUTO 14005KT 9999 FEW047 SCT074 OVC088 08/08 Q1009

Heure: 02:44 (00:44 UTC)


TAF: absent

Observations et prévisions météorologiques de plus de 4000 aéroports (messages METAR et TAF).

Les stations disponibles sont représentées par des disques jaunes et rouges sur la carte.

Passer la souris dessus pour voir le nom de la station.

Cliquer dessus pour voir les observations et prévisions météorologiques.

Pour changer de carte: cliquez sur les boutons verts avec une croix noire pour zoomer, sur le bouton vert avec un tiret pour effectuer un zoom arrière, ou sur les flèches vertes pour les cartes adjacentes.


METAR-TAF: